TimeEST,TemperatureF,Dew PointF,Humidity,Sea Level PressureIn,VisibilityMPH,Wind Direction,Wind SpeedMPH,Gust SpeedMPH,PrecipitationIn,Events,Conditions,WindDirDegrees,DateUTC
12:15 AM,41.2,37.0,85,30.35,10.0,Calm,Calm,-,N/A,,Clear,0,2012-12-02 05:15:00
12:35 AM,42.3,38.5,86,30.35,10.0,Calm,Calm,-,N/A,,Clear,0,2012-12-02 05:35:00
12:55 AM,40.6,36.9,86,30.35,10.0,Calm,Calm,-,N/A,,Clear,0,2012-12-02 05:55:00
1:15 AM,39.4,35.6,86,30.34,10.0,Calm,Calm,-,N/A,,Clear,0,2012-12-02 06:15:00
1:35 AM,41.4,37.6,86,30.34,10.0,Calm,Calm,-,N/A,,Clear,0,2012-12-02 06:35:00
1:55 AM,40.1,36.3,86,30.34,10.0,Calm,Calm,-,N/A,,Clear,0,2012-12-02 06:55:00
2:15 AM,40.3,36.5,86,30.34,10.0,Calm,Calm,-,N/A,,Clear,0,2012-12-02 07:15:00
2:35 AM,39.6,36.1,88,30.35,10.0,Calm,Calm,-,N/A,,Clear,0,2012-12-02 07:35:00
2:55 AM,39.4,36.0,88,30.34,10.0,Calm,Calm,-,N/A,,Clear,0,2012-12-02 07:55:00
3:15 AM,39.7,36.7,89,30.34,10.0,Calm,Calm,-,N/A,,Clear,0,2012-12-02 08:15:00
3:35 AM,39.2,35.8,88,30.34,10.0,Calm,Calm,-,N/A,,Scattered Clouds,0,2012-12-02 08:35:00
3:55 AM,39.2,36.0,88,30.34,10.0,Calm,Calm,-,N/A,,Scattered Clouds,0,2012-12-02 08:55:00
4:15 AM,40.1,37.0,89,30.34,10.0,Calm,Calm,-,N/A,,Mostly Cloudy,0,2012-12-02 09:15:00
4:35 AM,39.9,36.7,88,30.33,10.0,Calm,Calm,-,N/A,,Mostly Cloudy,0,2012-12-02 09:35:00
4:55 AM,40.1,36.9,88,30.34,7.0,Calm,Calm,-,N/A,,Scattered Clouds,0,2012-12-02 09:55:00
5:15 AM,40.5,37.6,89,30.34,10.0,Calm,Calm,-,N/A,,Mostly Cloudy,0,2012-12-02 10:15:00
5:35 AM,41.2,37.9,88,30.33,10.0,Calm,Calm,-,N/A,,Overcast,0,2012-12-02 10:35:00
5:55 AM,40.6,37.4,88,30.33,10.0,Calm,Calm,-,N/A,,Mostly Cloudy,0,2012-12-02 10:55:00
6:15 AM,40.8,37.8,89,30.33,10.0,Calm,Calm,-,N/A,,Mostly Cloudy,0,2012-12-02 11:15:00
6:35 AM,40.6,37.4,88,30.34,10.0,Calm,Calm,-,N/A,,Scattered Clouds,0,2012-12-02 11:35:00
6:55 AM,40.3,37.4,89,30.34,10.0,Calm,Calm,-,N/A,,Scattered Clouds,0,2012-12-02 11:55:00
7:15 AM,40.3,37.4,89,30.34,10.0,Calm,Calm,-,N/A,,Clear,0,2012-12-02 12:15:00
7:35 AM,39.9,36.9,89,30.34,10.0,Calm,Calm,-,N/A,,Clear,0,2012-12-02 12:35:00
7:55 AM,40.3,37.0,88,30.34,10.0,Calm,Calm,-,N/A,,Clear,0,2012-12-02 12:55:00
8:15 AM,40.8,37.8,89,30.35,7.0,Calm,Calm,-,N/A,,Clear,0,2012-12-02 13:15:00
8:35 AM,42.8,39.6,88,30.35,10.0,Calm,Calm,-,N/A,,Clear,0,2012-12-02 13:35:00
8:55 AM,43.7,40.5,88,30.35,7.0,Calm,Calm,-,N/A,,Scattered Clouds,0,2012-12-02 13:55:00
9:15 AM,45.9,42.3,87,30.35,7.0,Calm,Calm,-,N/A,,Mostly Cloudy,0,2012-12-02 14:15:00
9:35 AM,48.4,44.2,86,30.35,10.0,Calm,Calm,-,N/A,,Scattered Clouds,0,2012-12-02 14:35:00
9:55 AM,50.9,44.6,79,30.35,10.0,South,3.5,-,N/A,,Scattered Clouds,170,2012-12-02 14:55:00
10:15 AM,52.2,45.5,78,30.35,10.0,Calm,Calm,-,N/A,,Scattered Clouds,0,2012-12-02 15:15:00
10:35 AM,54.0,46.8,77,30.34,10.0,Calm,Calm,-,N/A,,Clear,0,2012-12-02 15:35:00
10:55 AM,55.4,46.8,73,30.33,10.0,Calm,Calm,-,N/A,,Clear,0,2012-12-02 15:55:00
11:15 AM,56.3,46.8,70,30.33,10.0,Calm,Calm,-,N/A,,Clear,0,2012-12-02 16:15:00
11:35 AM,58.1,47.5,68,30.32,10.0,SSW,4.6,-,N/A,,Clear,200,2012-12-02 16:35:00
11:55 AM,58.5,47.5,67,30.31,10.0,SSW,3.5,-,N/A,,Clear,210,2012-12-02 16:55:00
12:15 PM,60.8,49.1,65,30.29,10.0,SSW,8.1,-,N/A,,Clear,210,2012-12-02 17:15:00
12:35 PM,61.3,49.1,64,30.28,10.0,SW,6.9,-,N/A,,Clear,230,2012-12-02 17:35:00
12:55 PM,62.6,49.3,62,30.27,10.0,SSW,8.1,-,N/A,,Clear,210,2012-12-02 17:55:00
1:15 PM,62.2,49.3,63,30.26,10.0,SSW,4.6,-,N/A,,Clear,200,2012-12-02 18:15:00
1:35 PM,63.9,50.0,61,30.25,10.0,WSW,3.5,-,N/A,,Clear,240,2012-12-02 18:35:00
1:55 PM,65.8,50.0,57,30.24,10.0,SW,6.9,-,N/A,,Clear,220,2012-12-02 18:55:00
2:15 PM,66.7,49.6,54,30.22,10.0,SSW,9.2,-,N/A,,Clear,210,2012-12-02 19:15:00
2:35 PM,67.5,49.5,52,30.22,10.0,WSW,6.9,-,N/A,,Clear,240,2012-12-02 19:35:00
2:55 PM,67.8,48.4,50,30.22,10.0,SW,9.2,-,N/A,,Scattered Clouds,220,2012-12-02 19:55:00
3:15 PM,67.5,49.1,52,30.22,10.0,SW,8.1,-,N/A,,Mostly Cloudy,220,2012-12-02 20:15:00
3:35 PM,67.1,49.5,53,30.21,10.0,SSW,8.1,-,N/A,,Scattered Clouds,200,2012-12-02 20:35:00
4:15 PM,66.6,49.5,54,30.22,10.0,SSW,9.2,-,N/A,,Clear,210,2012-12-02 21:15:00
4:35 PM,66.0,49.5,55,30.22,10.0,SSW,6.9,-,N/A,,Clear,210,2012-12-02 21:35:00
4:55 PM,65.1,49.8,58,30.22,10.0,SSW,5.8,-,N/A,,Clear,200,2012-12-02 21:55:00
5:15 PM,64.2,49.6,59,30.22,10.0,South,3.5,-,N/A,,Clear,190,2012-12-02 22:15:00
5:35 PM,63.3,49.6,61,30.22,10.0,SSE,3.5,-,N/A,,Clear,160,2012-12-02 22:35:00
5:55 PM,62.8,49.5,62,30.23,10.0,Calm,Calm,-,N/A,,Clear,0,2012-12-02 22:55:00
6:15 PM,61.3,49.5,65,30.23,10.0,Calm,Calm,-,N/A,,Clear,0,2012-12-02 23:15:00
6:35 PM,59.9,49.5,68,30.24,10.0,SE,3.5,-,N/A,,Clear,130,2012-12-02 23:35:00
6:55 PM,59.9,49.6,69,30.24,10.0,SSE,3.5,-,N/A,,Clear,160,2012-12-02 23:55:00
7:15 PM,60.3,49.6,68,30.24,10.0,Calm,Calm,-,N/A,,Clear,0,2012-12-03 00:15:00
7:35 PM,60.1,50.0,69,30.24,10.0,Calm,Calm,-,N/A,,Clear,0,2012-12-03 00:35:00
7:55 PM,58.1,49.3,72,30.24,10.0,Calm,Calm,-,N/A,,Clear,0,2012-12-03 00:55:00
8:15 PM,56.8,49.5,76,30.24,10.0,Calm,Calm,-,N/A,,Clear,0,2012-12-03 01:15:00
8:35 PM,57.2,49.5,75,30.24,10.0,Calm,Calm,-,N/A,,Clear,0,2012-12-03 01:35:00
8:55 PM,57.4,49.6,75,30.24,10.0,Calm,Calm,-,N/A,,Clear,0,2012-12-03 01:55:00
9:15 PM,57.6,49.8,75,30.24,10.0,Calm,Calm,-,N/A,,Clear,0,2012-12-03 02:15:00
9:35 PM,56.8,49.8,77,30.24,10.0,Calm,Calm,-,N/A,,Clear,0,2012-12-03 02:35:00
9:55 PM,55.6,49.5,80,30.25,10.0,Calm,Calm,-,N/A,,Clear,0,2012-12-03 02:55:00
10:15 PM,52.7,47.7,83,30.25,10.0,Calm,Calm,-,N/A,,Scattered Clouds,0,2012-12-03 03:15:00
10:35 PM,52.2,47.7,85,30.25,10.0,Calm,Calm,-,N/A,,Clear,0,2012-12-03 03:35:00
10:55 PM,50.9,46.8,86,30.25,10.0,Calm,Calm,-,N/A,,Clear,0,2012-12-03 03:55:00
11:15 PM,50.2,46.0,86,30.25,10.0,SE,3.5,-,N/A,,Clear,130,2012-12-03 04:15:00
11:35 PM,53.1,48.9,86,30.25,10.0,Calm,Calm,-,N/A,,Scattered Clouds,0,2012-12-03 04:35:00
11:55 PM,52.0,47.8,86,30.26,10.0,Calm,Calm,-,N/A,,Mostly Cloudy,0,2012-12-03 04:55:00